When you browse on this site, cookies collect data to enhance your experience and personalize the content and advertising you see.
Visit our Privacy Policy to learn more. By continuing to use the site, you agree to this use of cookies and data.
  • In Spain
  • List of Countries
  • For 7 days
  • Water Temperature
  • Weather Map
  • Weather Widgets
  • user-avatar
    Login

    Hourly Weather Kalgoorlie

    Today, 10 April, Friday

    Time Temperature Precipitation Wind Pressure Humidity
    00:00 +25°C° 0 mm 4 mps 732 mmHg 28%
    01:00 +25°C° 0 mm 3 mps 732 mmHg 29%
    02:00 +24°C° 0 mm 3 mps 732 mmHg 31%
    03:00 +24°C° 0 mm 3 mps 732 mmHg 32%
    04:00 +22°C° 0 mm 3 mps 732 mmHg 32%
    05:00 +22°C° 0 mm 3 mps 731 mmHg 33%
    06:00 +24°C° 0 mm 3 mps 732 mmHg 31%
    07:00 +25°C° 0 mm 3 mps 733 mmHg 30%
    08:00 +26°C° 0 mm 3 mps 733 mmHg 27%
    09:00 +28°C° 0 mm 3 mps 733 mmHg 24%
    10:00 +30°C° 0 mm 3 mps 733 mmHg 22%
    11:00 +33°C° 0 mm 3 mps 733 mmHg 19%
    12:00 +32°C° 0 mm 2 mps 732 mmHg 19%
    13:00 +34°C° 0 mm 2 mps 732 mmHg 19%
    14:00 +34°C° 0 mm 1 mps 731 mmHg 19%
    15:00 +34°C° 0 mm 1 mps 731 mmHg 19%
    16:00 +34°C° 0 mm 1 mps 731 mmHg 20%
    17:00 +33°C° 0 mm 1 mps 731 mmHg 20%
    18:00 +32°C° 0 mm 2 mps 731 mmHg 22%
    19:00 +31°C° 0 mm 2 mps 732 mmHg 23%
    20:00 +29°C° 0 mm 2 mps 732 mmHg 25%
    21:00 +29°C° 0 mm 2 mps 732 mmHg 26%
    22:00 +28°C° 0 mm 2 mps 732 mmHg 27%
    23:00 +27°C° 0 mm 2 mps 732 mmHg 28%

    Tomorrow, 11 April, Saturday

    Time Temperature Precipitation Wind Pressure Humidity
    00:00 +26°C° 0 mm 3 mps 732 mmHg 35%
    01:00 +25°C° 0 mm 3 mps 732 mmHg 43%
    02:00 +23°C° 0 mm 4 mps 732 mmHg 50%
    03:00 +22°C° 0 mm 4 mps 732 mmHg 57%
    04:00 +21°C° 0 mm 4 mps 732 mmHg 64%
    05:00 +20°C° 0 mm 4 mps 732 mmHg 71%
    06:00 +21°C° 0 mm 4 mps 733 mmHg 69%
    07:00 +21°C° 0 mm 5 mps 733 mmHg 67%
    08:00 +22°C° 0 mm 5 mps 734 mmHg 65%
    09:00 +26°C° 0 mm 4 mps 733 mmHg 52%
    10:00 +28°C° 0 mm 4 mps 733 mmHg 39%
    11:00 +32°C° 0 mm 4 mps 733 mmHg 26%
    12:00 +33°C° 0 mm 3 mps 732 mmHg 23%
    13:00 +34°C° 0 mm 3 mps 732 mmHg 21%
    14:00 +35°C° 0 mm 2 mps 731 mmHg 18%
    15:00 +35°C° 0 mm 2 mps 731 mmHg 18%
    16:00 +35°C° 0 mm 2 mps 731 mmHg 19%
    17:00 +35°C° 0 mm 2 mps 731 mmHg 19%
    18:00 +34°C° 0 mm 2 mps 731 mmHg 21%
    19:00 +31°C° 0 mm 3 mps 731 mmHg 23%
    20:00 +30°C° 0 mm 3 mps 732 mmHg 25%
    21:00 +29°C° 0 mm 3 mps 732 mmHg 26%
    22:00 +29°C° 0 mm 3 mps 732 mmHg 28%
    23:00 +28°C° 0 mm 4 mps 732 mmHg 30%

    Day after tomorrow, 12 April, Sunday

    Time Temperature Precipitation Wind Pressure Humidity
    00:00 +27°C° 0 mm 4 mps 731 mmHg 31%
    01:00 +27°C° 0 mm 4 mps 731 mmHg 33%
    02:00 +26°C° 0 mm 4 mps 730 mmHg 34%
    03:00 +26°C° 0 mm 5 mps 730 mmHg 36%
    04:00 +25°C° 0 mm 5 mps 730 mmHg 37%
    05:00 +25°C° 0 mm 5 mps 731 mmHg 38%
    06:00 +26°C° 0 mm 6 mps 731 mmHg 35%
    07:00 +27°C° 0 mm 7 mps 731 mmHg 32%
    08:00 +28°C° 0 mm 7 mps 731 mmHg 29%
    09:00 +30°C° 0 mm 7 mps 731 mmHg 25%
    10:00 +33°C° 0 mm 7 mps 731 mmHg 20%
    11:00 +36°C° 0 mm 7 mps 731 mmHg 16%
    12:00 +36°C° 0 mm 6 mps 730 mmHg 14%
    13:00 +37°C° 0 mm 4 mps 730 mmHg 13%
    14:00 +37°C° 0 mm 3 mps 729 mmHg 12%
    15:00 +37°C° 0 mm 3 mps 729 mmHg 14%
    16:00 +36°C° 0 mm 2 mps 729 mmHg 15%
    17:00 +35°C° 0 mm 1 mps 728 mmHg 17%
    18:00 +33°C° 0 mm 1 mps 729 mmHg 17%
    19:00 +32°C° 0 mm 2 mps 729 mmHg 17%
    20:00 +30°C° 0 mm 2 mps 729 mmHg 17%
    21:00 +29°C° 0 mm 2 mps 729 mmHg 17%
    22:00 +29°C° 0 mm 3 mps 729 mmHg 18%
    23:00 +28°C° 0 mm 3 mps 729 mmHg 18%

    13 April, Monday

    Time Temperature Precipitation Wind Pressure Humidity
    00:00 +28°C° 0 mm 3 mps 729 mmHg 19%
    01:00 +27°C° 0 mm 3 mps 729 mmHg 20%
    02:00 +26°C° 0 mm 3 mps 728 mmHg 20%
    03:00 +25°C° 0 mm 2 mps 728 mmHg 22%
    04:00 +24°C° 0 mm 2 mps 728 mmHg 24%
    05:00 +24°C° 0 mm 2 mps 728 mmHg 26%
    06:00 +24°C° 0 mm 2 mps 729 mmHg 28%
    07:00 +25°C° 0 mm 2 mps 729 mmHg 30%
    08:00 +25°C° 0 mm 3 mps 729 mmHg 32%
    09:00 +27°C° 0 mm 2 mps 729 mmHg 29%
    10:00 +29°C° 0 mm 2 mps 729 mmHg 26%
    11:00 +31°C° 0 mm 1 mps 729 mmHg 23%
    12:00 +32°C° 0 mm 1 mps 729 mmHg 21%
    13:00 +35°C° 0 mm 2 mps 728 mmHg 18%
    14:00 +36°C° 0 mm 2 mps 728 mmHg 16%
    15:00 +36°C° 0 mm 2 mps 728 mmHg 17%
    16:00 +36°C° 0 mm 2 mps 728 mmHg 17%
    17:00 +35°C° 0 mm 2 mps 728 mmHg 18%
    18:00 +34°C° 0 mm 3 mps 728 mmHg 21%
    19:00 +31°C° 0 mm 3 mps 728 mmHg 25%
    20:00 +30°C° 0 mm 4 mps 729 mmHg 28%
    21:00 +29°C° 0 mm 4 mps 729 mmHg 30%
    22:00 +28°C° 0 mm 4 mps 729 mmHg 32%
    23:00 +28°C° 0 mm 4 mps 729 mmHg 34%

    14 April, Tuesday

    Time Temperature Precipitation Wind Pressure Humidity
    00:00 +27°C° 0 mm 3 mps 729 mmHg 40%
    01:00 +25°C° 0 mm 3 mps 728 mmHg 46%
    02:00 +24°C° 0 mm 3 mps 728 mmHg 52%
    03:00 +24°C° 0 mm 3 mps 728 mmHg 55%
    04:00 +23°C° 0 mm 4 mps 728 mmHg 57%
    05:00 +22°C° 0 mm 4 mps 728 mmHg 60%
    06:00 +22°C° 0 mm 4 mps 728 mmHg 59%
    07:00 +24°C° 0 mm 3 mps 728 mmHg 59%
    08:00 +24°C° 0 mm 3 mps 729 mmHg 58%
    09:00 +26°C° 0 mm 2 mps 728 mmHg 52%
    10:00 +27°C° 0 mm 2 mps 728 mmHg 45%
    11:00 +28°C° 0 mm 1 mps 728 mmHg 39%
    12:00 +30°C° 0 mm 1 mps 728 mmHg 35%
    13:00 +31°C° 0 mm 2 mps 727 mmHg 31%
    14:00 +34°C° 0 mm 2 mps 727 mmHg 27%
    15:00 +32°C° 0 mm 2 mps 727 mmHg 27%
    16:00 +32°C° 0 mm 2 mps 727 mmHg 27%
    17:00 +32°C° 0 mm 2 mps 727 mmHg 27%
    18:00 +31°C° 0 mm 2 mps 727 mmHg 30%
    19:00 +30°C° 0 mm 2 mps 728 mmHg 33%
    20:00 +28°C° 0 mm 2 mps 728 mmHg 35%
    21:00 +28°C° 0 mm 3 mps 728 mmHg 38%
    22:00 +27°C° 0 mm 3 mps 728 mmHg 41%
    23:00 +27°C° 0 mm 3 mps 728 mmHg 44%

    15 April, Wednesday

    Time Temperature Precipitation Wind Pressure Humidity
    00:00 +26°C° 0 mm 3 mps 728 mmHg 43%
    01:00 +26°C° 0 mm 3 mps 728 mmHg 43%
    02:00 +26°C° 0 mm 3 mps 727 mmHg 43%
    03:00 +25°C° 0 mm 3 mps 727 mmHg 43%
    04:00 +25°C° 0 mm 3 mps 727 mmHg 43%
    05:00 +24°C° 0 mm 3 mps 727 mmHg 44%
    06:00 +23°C° 0 mm 4 mps 728 mmHg 43%
    07:00 +22°C° 0 mm 4 mps 728 mmHg 42%
    08:00 +22°C° 0 mm 4 mps 729 mmHg 41%
    09:00 +23°C° 0 mm 5 mps 729 mmHg 40%
    10:00 +24°C° 0 mm 6 mps 729 mmHg 40%
    11:00 +26°C° 0 mm 6 mps 729 mmHg 39%
    12:00 +26°C° 0 mm 7 mps 728 mmHg 37%
    13:00 +27°C° 0 mm 8 mps 728 mmHg 36%
    14:00 +28°C° 0 mm 8 mps 728 mmHg 34%
    15:00 +27°C° 0 mm 8 mps 728 mmHg 31%
    16:00 +26°C° 0 mm 7 mps 728 mmHg 28%
    17:00 +26°C° 0 mm 7 mps 727 mmHg 25%
    18:00 +24°C° 0 mm 6 mps 728 mmHg 30%
    19:00 +22°C° 0 mm 5 mps 728 mmHg 34%
    20:00 +21°C° 0 mm 4 mps 729 mmHg 39%
    21:00 +20°C° 0 mm 4 mps 729 mmHg 43%
    22:00 +19°C° 0 mm 4 mps 729 mmHg 47%
    23:00 +18°C° 0 mm 4 mps 730 mmHg 50%
    Show more